This demonstration page uses our WeatherBlox Daily Observations layout. Learn more.

Left ArrowRight Arrow

Hourly Observations for July 3, 2017

Temp ( °F °C ) Dew Point ( °F °C ) Humidity (%) Winds ( mph kmh ) Pressure ( in mb ) Visibility ( mi km ) Precip ( " mm )
12:53 am 00:53 Clear 65 18.3 64 17.8 97 97 N N/A 30.08 1019 8 13 N/A
1:53 am 01:53 Clear with Mist and Fog 64 17.8 64 17.8 100 100 N N/A 30.07 1018 6 10 N/A
2:53 am 02:53 Clear with Mist and Fog 63 17.2 63 17.2 100 100 N N/A 30.05 1018 6 10 N/A
3:53 am 03:53 Clear with Mist and Fog 62 16.7 62 16.7 100 100 N N/A 30.04 1017 5 8 N/A
4:53 am 04:53 Clear 62 16.7 62 16.7 100 100 N N/A 30.05 1018 9 14 N/A
5:43 am 05:43 Clear with Mist and Fog 61 16.1 61 16.1 100 100 N N/A 30.06 1018 2 3 N/A
5:50 am 05:50 Clear with Mist and Fog 61 16 61 16 100 100 N N/A 30.06 1018 1 2 N/A
5:53 am 05:53 Clear with Mist and Fog 62 16.7 61 16.1 96 96 N N/A 30.06 1018 3 5 N/A
6:53 am 06:53 Sunny 63 17.2 63 17.2 100 100 N N/A 30.07 1018 7 11 N/A
7:53 am 07:53 Sunny 68 20 66 18.9 93 93 N N/A 30.09 1019 10 16 N/A
8:53 am 08:53 Sunny 73 22.8 68 20 84 84 N N/A 30.10 1019 10 16 N/A
9:53 am 09:53 Sunny 78 25.6 67 19.4 69 69 N N/A 30.09 1019 10 16 N/A
10:53 am 10:53 Sunny 81 27.2 68 20 65 65 N N/A 30.09 1019 10 16 N/A
11:53 am 11:53 Mostly Sunny 84 28.9 67 19.4 57 57 VRB 3 6 30.09 1019 10 16 N/A
12:53 pm 12:53 Sunny 85 29.4 67 19.4 55 55 SE 3 6 30.08 1019 10 16 N/A
1:53 pm 13:53 Mostly Sunny 87 30.6 67 19.4 51 51 NNW 3 6 30.07 1018 10 16 N/A
2:53 pm 14:53 Sunny 85 29.4 65 18.3 51 51 N N/A 30.05 1018 10 16 N/A
3:53 pm 15:53 Sunny 87 30.6 66 18.9 50 50 NNW 3 6 30.04 1017 10 16 N/A
4:53 pm 16:53 Sunny 88 31.1 67 19.4 50 50 N N/A 30.03 1017 10 16 N/A
5:53 pm 17:53 Sunny 88 31.1 66 18.9 48 48 N N/A 30.01 1016 10 16 N/A
6:53 pm 18:53 Mostly Sunny 85 29.4 67 19.4 55 55 SSE 6 9 30.00 1016 10 16 N/A
7:53 pm 19:53 Mostly Cloudy 81 27.2 70 21.1 69 69 VRB 3 6 30.01 1016 10 16 N/A
8:53 pm 20:53 Mostly Sunny 79 26.1 67 19.4 67 67 SW 3 6 30.01 1016 10 16 N/A
9:53 pm 21:53 Clear 74 23.3 68 20 82 82 N N/A 30.03 1017 10 16 N/A
10:53 pm 22:53 Clear 72 22.2 68 20 87 87 N N/A 30.04 1017 10 16 N/A
11:53 pm 23:53 Mostly Cloudy 71 21.7 68 20 90 90 N N/A 30.04 1017 10 16 N/A

Powered by AerisWeather